Weather History for KGBG - November, 2011

Change the Weather History Date:

Sunday, November 27, 2011

  Actual Average Record
Temperature  
Mean Temperature 38 °F -  
Max Temperature 41 °F 41 °F 68 °F (1989)
Min Temperature 36 °F 27 °F 4 °F (2014)
Degree Days  
Heating Degree Days 26    
Moisture  
Dew Point 31 °F    
Average Humidity 75    
Maximum Humidity 81    
Minimum Humidity 68    
Precipitation  
Precipitation 0.00 in - - ()
Sea Level Pressure  
Sea Level Pressure 30.05 in    
Wind  
Wind Speed 13 mph (NW)    
Max Wind Speed 18 mph    
Max Gust Speed 26 mph    
Visibility 10 miles    
Events      
Averages and records for this station are not official NWS values.
T = Trace of Precipitation, MM = Missing Value Source: NWS Daily Summary

Daily Weather History Graph

Daily Weather History Graph

Search for Another Location

Airport or City:

Trip Planner

Search our weather history database for the weather conditions in past years. The results will help you decide how hot, cold, wet, or windy it might be!

Date:

Astronomy

Nov. 27, 2011 Rise Set
Actual Time 7:02 AM CST 4:35 PM CST
Civil Twilight 6:32 AM CST 5:06 PM CST
Nautical Twilight 5:58 AM CST 5:39 PM CST
Astronomical Twilight 5:25 AM CST 6:12 PM CST
Moon 9:27 AM CST (11/27) 7:14 PM CST (11/27)
Length of Visible Light 10h 33m
Length of Day
9h 33m
Waxing Crescent, 8% of the Moon is Illuminated
Nov 27
Waxing Crescent
Dec 2
First Quarter
Dec 10
Full
Dec 17
Last Quarter
Dec 24
New

Hourly Weather History & Observations

Time (CST) Temp. Windchill Dew Point Humidity Pressure Visibility Wind Dir Wind Speed Gust Speed Precip Events Conditions
12:15 AM 41.9 °F 35.0 °F 36.3 °F 81% 29.91 in 10.0 mi WNW 12.7 mph 20.7 mph N/A   Overcast
12:55 AM 41.9 °F 35.0 °F 36.0 °F 79% 29.91 in 10.0 mi WNW 12.7 mph 19.6 mph N/A   Overcast
1:15 AM 41.5 °F 34.2 °F 36.0 °F 81% 29.90 in 10.0 mi WNW 13.8 mph 20.7 mph N/A   Overcast
1:35 AM 41.5 °F 34.2 °F 35.6 °F 79% 29.91 in 10.0 mi WNW 13.8 mph 21.9 mph N/A   Overcast
1:55 AM 41.5 °F 33.8 °F 35.6 °F 79% 29.92 in 10.0 mi WNW 15.0 mph 21.9 mph N/A   Overcast
2:15 AM 41.0 °F 33.1 °F 35.6 °F 81% 29.92 in 10.0 mi WNW 15.0 mph 20.7 mph N/A   Overcast
2:35 AM 41.0 °F 33.1 °F 35.2 °F 80% 29.92 in 10.0 mi WNW 15.0 mph 24.2 mph N/A   Overcast
2:55 AM 41.0 °F 34.3 °F 35.1 °F 79% 29.93 in 10.0 mi WNW 11.5 mph 21.9 mph N/A   Overcast
3:15 AM 41.0 °F 33.1 °F 35.1 °F 79% 29.93 in 10.0 mi WNW 15.0 mph 19.6 mph N/A   Overcast
3:35 AM 41.0 °F 33.1 °F 34.7 °F 78% 29.93 in 10.0 mi WNW 15.0 mph 19.6 mph N/A   Overcast
3:55 AM 40.6 °F 32.7 °F 34.2 °F 78% 29.93 in 10.0 mi WNW 15.0 mph - N/A   Overcast
4:15 AM 40.5 °F 32.8 °F 34.2 °F 78% 29.94 in 10.0 mi WNW 13.8 mph - N/A   Overcast
4:35 AM 40.5 °F 32.5 °F 34.0 °F 78% 29.94 in 10.0 mi WNW 15.0 mph 19.6 mph N/A   Overcast
5:15 AM 40.1 °F 32.0 °F 33.8 °F 78% 29.94 in 10.0 mi WNW 15.0 mph 18.4 mph N/A   Overcast
5:35 AM 39.9 °F 32.9 °F 33.8 °F 79% 29.94 in 10.0 mi WNW 11.5 mph 19.6 mph N/A   Overcast
5:55 AM 39.6 °F 31.7 °F 33.8 °F 80% 29.95 in 10.0 mi WNW 13.8 mph 19.6 mph N/A   Overcast
6:15 AM 39.6 °F 31.0 °F 32.2 °F 75% 29.97 in 10.0 mi NW 16.1 mph 26.5 mph N/A   Overcast
6:35 AM 39.4 °F 31.1 °F 32.0 °F 75% 29.98 in 10.0 mi NW 15.0 mph 23.0 mph N/A   Overcast
6:55 AM 39.2 °F 30.8 °F 32.4 °F 76% 29.99 in 10.0 mi WNW 15.0 mph - N/A   Overcast
7:15 AM 38.8 °F 30.4 °F 32.0 °F 76% 30.00 in 10.0 mi WNW 15.0 mph 23.0 mph N/A   Overcast
7:35 AM 38.7 °F 30.9 °F 32.0 °F 77% 30.01 in 10.0 mi WNW 12.7 mph 18.4 mph N/A   Overcast
7:55 AM 38.5 °F 30.3 °F 32.0 °F 78% 30.02 in 10.0 mi WNW 13.8 mph 21.9 mph N/A   Overcast
8:15 AM 38.5 °F 29.2 °F 32.0 °F 78% 30.02 in 10.0 mi NW 17.3 mph 23.0 mph N/A   Overcast
8:35 AM 38.3 °F 28.7 °F 32.0 °F 78% 30.03 in 10.0 mi WNW 18.4 mph 24.2 mph N/A   Overcast
8:55 AM 39.2 °F 30.5 °F 32.0 °F 75% 30.03 in 10.0 mi NW 16.1 mph 23.0 mph N/A   Overcast
9:15 AM 38.5 °F 30.3 °F 32.0 °F 78% 30.04 in 10.0 mi WNW 13.8 mph 21.9 mph N/A   Overcast
9:35 AM 38.8 °F 30.0 °F 31.6 °F 75% 30.04 in 10.0 mi NW 16.1 mph - N/A   Overcast
9:55 AM 39.2 °F 30.5 °F 31.5 °F 74% 30.04 in 10.0 mi NW 16.1 mph 20.7 mph N/A   Overcast
10:15 AM 39.2 °F 31.2 °F 31.8 °F 75% 30.05 in 10.0 mi NW 13.8 mph 18.4 mph N/A   Overcast
10:35 AM 39.2 °F 30.5 °F 31.3 °F 73% 30.05 in 10.0 mi NW 16.1 mph 20.7 mph N/A   Overcast
10:55 AM 39.4 °F 31.1 °F 31.8 °F 74% 30.05 in 10.0 mi NW 15.0 mph 19.6 mph N/A   Overcast
11:15 AM 39.4 °F 31.8 °F 31.6 °F 74% 30.05 in 10.0 mi NW 12.7 mph 19.6 mph N/A   Overcast
11:35 AM 39.2 °F 31.2 °F 32.0 °F 75% 30.04 in 10.0 mi WNW 13.8 mph 20.7 mph N/A   Overcast
11:55 AM 39.2 °F 31.6 °F 32.0 °F 75% 30.04 in 10.0 mi WNW 12.7 mph - N/A   Overcast
12:15 PM 40.3 °F 32.6 °F 32.0 °F 72% 30.04 in 10.0 mi WNW 13.8 mph - N/A   Overcast
12:35 PM 40.1 °F 32.4 °F 30.9 °F 70% 30.05 in 10.0 mi NW 13.8 mph - N/A   Overcast
12:55 PM 39.2 °F 30.2 °F 30.2 °F 70% 30.05 in 10.0 mi NW 17.3 mph - N/A   Overcast
1:15 PM 40.1 °F 33.2 °F 30.4 °F 68% 30.05 in 10.0 mi NW 11.5 mph 16.1 mph N/A   Overcast
1:35 PM 39.6 °F 32.5 °F 30.7 °F 71% 30.05 in 10.0 mi NW 11.5 mph 17.3 mph N/A   Overcast
1:55 PM 39.2 °F 31.6 °F 30.2 °F 70% 30.06 in 10.0 mi WNW 12.7 mph 18.4 mph N/A   Overcast
2:15 PM 39.2 °F 32.0 °F 31.1 °F 73% 30.06 in 10.0 mi WNW 11.5 mph 18.4 mph N/A   Overcast
2:35 PM 38.7 °F 30.5 °F 31.5 °F 75% 30.06 in 10.0 mi WNW 13.8 mph - N/A   Overcast
2:55 PM 38.5 °F 31.6 °F 31.5 °F 76% 30.07 in 10.0 mi WNW 10.4 mph - N/A   Overcast
3:15 PM 38.3 °F 31.9 °F 32.0 °F 78% 30.08 in 10.0 mi WNW 9.2 mph - N/A   Overcast
3:35 PM 37.9 °F 29.6 °F 32.0 °F 79% 30.09 in 10.0 mi WNW 13.8 mph - N/A   Overcast
3:55 PM 37.8 °F 31.8 °F 32.0 °F 80% 30.10 in 10.0 mi NW 8.1 mph - N/A   Overcast
4:15 PM 37.8 °F 31.3 °F 32.0 °F 80% 30.10 in 10.0 mi WNW 9.2 mph - N/A   Overcast
4:35 PM 37.8 °F 30.7 °F 31.5 °F 78% 30.11 in 10.0 mi NNW 10.4 mph - N/A   Overcast
4:55 PM 38.3 °F 29.3 °F 29.7 °F 71% 30.11 in 10.0 mi NNW 16.1 mph 19.6 mph N/A   Overcast
5:15 PM 38.3 °F 30.1 °F 29.3 °F 70% 30.12 in 10.0 mi NNW 13.8 mph - N/A   Overcast
5:35 PM 37.8 °F 30.7 °F 30.4 °F 75% 30.12 in 10.0 mi NNW 10.4 mph - N/A   Overcast
5:55 PM 37.6 °F 31.0 °F 28.9 °F 71% 30.13 in 10.0 mi NNW 9.2 mph - N/A   Overcast
6:15 PM 37.8 °F 31.8 °F 28.6 °F 69% 30.14 in 10.0 mi North 8.1 mph - N/A   Overcast
6:35 PM 37.8 °F 30.2 °F 28.4 °F 69% 30.14 in 10.0 mi NNW 11.5 mph - N/A   Overcast
6:55 PM 37.6 °F 31.6 °F 29.1 °F 72% 30.14 in 10.0 mi NNW 8.1 mph - N/A   Overcast
7:15 PM 37.6 °F 33.1 °F 29.3 °F 72% 30.14 in 10.0 mi NNW 5.8 mph - N/A   Overcast
7:35 PM 37.4 °F 29.3 °F 29.5 °F 73% 30.15 in 10.0 mi NNW 12.7 mph - N/A   Overcast
7:55 PM 37.6 °F 30.5 °F 28.2 °F 69% 30.15 in 10.0 mi NNW 10.4 mph - N/A   Overcast
8:15 PM 37.4 °F 31.4 °F 28.4 °F 70% 30.15 in 10.0 mi North 8.1 mph - N/A   Overcast
8:35 PM 37.0 °F 31.6 °F 28.2 °F 70% 30.15 in 10.0 mi NNW 6.9 mph - N/A   Overcast
8:55 PM 37.0 °F 30.4 °F 28.9 °F 73% 30.16 in 10.0 mi NNW 9.2 mph - N/A   Overcast
9:15 PM 36.7 °F 32.0 °F 29.8 °F 76% 30.16 in 10.0 mi NNW 5.8 mph - N/A   Overcast
9:35 PM 36.9 °F 30.1 °F 28.2 °F 71% 30.16 in 10.0 mi North 9.2 mph - N/A   Overcast
9:55 PM 36.7 °F 29.4 °F 27.9 °F 70% 30.15 in 10.0 mi North 10.4 mph - N/A   Overcast
10:15 PM 36.5 °F 31.0 °F 28.4 °F 72% 30.16 in 10.0 mi North 6.9 mph - N/A   Overcast
10:35 PM 36.5 °F 28.7 °F 28.0 °F 71% 30.15 in 10.0 mi NNW 11.5 mph - N/A   Overcast
10:55 PM 36.5 °F 30.3 °F 28.2 °F 72% 30.16 in 10.0 mi NNW 8.1 mph - N/A   Overcast
11:15 PM 36.3 °F 29.5 °F 28.6 °F 74% 30.16 in 10.0 mi NNW 9.2 mph - N/A   Overcast
11:35 PM 36.1 °F 29.9 °F 28.9 °F 75% 30.16 in 10.0 mi NNW 8.1 mph - N/A   Overcast
11:55 PM 36.1 °F 28.7 °F 27.9 °F 72% 30.15 in 10.0 mi NNW 10.4 mph 16.1 mph N/A   Overcast